SCP
0 0 0 0 0 0 0 0 0 0 0 0 0 0 0 0 0 0 0 0 0 0 0 0 0 0 0 0 0 0 0 0 0 0 0 0 0 0 0 0 0 0 0 0
0 0 0 0 0 0 0 0 0 0 0 0 0 0 0 0 0 0 0 0 0 0 0 0 0 0 0 0 0 0 0 0 0 0 0 0 0 0 0 0 0 0 0 0
0 0 0 0 0 0 0 0 0 0 0 0 0 0 0 0 0 0 0 0 0 0 0 0 0 0 0 0 0 0 0 0 0 0 0 0 0 0 0 0 0 0 0 0
0 0 0 0 0 0 0 0 0 0 0 0 0 0 0 0 0 0 0 0 0 0 0 0 0 0 0 0 0 0 0 0 0 0 0 0 0 0 0 0 0 0 0 0
0 0 0 0 0 0 0 0 0 0 0 0 0 0 0 0 0 0 0 0 0 0 0 0 0 0 0 0 0 0 0 0 0 0 0 0 0 0 0 0 0 0 0 0
0 0 0 0 0 0 0 0 0 0 0 0 0 0 0 0 0 0 0 0 0 0 0 0 0 0 0 0 0 0 0 0 0 0 0 0 0 0 0 0 0 0 0 0
0 0 0 0 0 0 0 0 0 0 0 0 0 0 0 0 0 0 0 0 0 0 0 0 0 0 0 0 0 0 0 0 0 0 0 0 0 0 0 0 0 0 0 0
0 0 0 0 0 0 0 0 0 0 0 0 0 0 0 0 0 0 0 0 0 0 0 0 0 0 0 0 0 0 0 0 0 0 0 0 0 0 0 0 0 0 0 0
0 0 0 0 0 0 0 0 0 0 0 0 0 0 0 0 0 0 0 0 0 0 0 0 0 0 0 0 0 0 0 0 0 0 0 0 0 0 0 0 0 0 0 0
0 0 0 0 0 0 0 0 0 0 0 0 0 0 0 0 0 0 0 0 0 0 0 0 0 0 0 0 0 0 0 0 0 0 0 0 0 0 0 0 0 0 0 0
0 0 0 0 0 0 0 0 0 0 0 0 0 0 0 0 0 0 0 0 0 0 0 0 0 0 0 0 0 0 0 0 0 0 0 0 0 0 0 0 0 0 0 0
0 0 0 0 0 0 0 0 0 0 0 0 0 0 0 0 0 0 0 0 0 0 0 0 0 0 0 0 0 0 0 0 0 0 0 0 0 0 0 0 0 0 0 0
0 0 0 0 0 0 0 0 0 0 0 0 0 0 0 0 0 0 0 0 0 0 0 0 0 0 0 0 0 0 0 0 0 0 0 0 0 0 0 0 0 0 0 0
0 0 0 0 0 0 0 0 0 0 0 0 0 0 0 0 0 0 0 0 0 0 0 0 0 0 0 0 0 0 0 0 0 0 0 0 0 0 0 0 0 0 0 0
0 0 0 0 0 0 0 0 0 0 0 0 0 0 0 0 0 0 0 0 0 0 0 0 0 0 0 0 0 0 0 0 0 0 0 0 0 0 0 0 0 0 0 0
0 0 0 0 0 0 0 0 0 0 0 0 0 0 0 0 0 0 0 0 0 0 0 0 0 0 0 0 0 0 0 0 0 0 0 0 0 0 0 0 0 0 0 0
0 0 0 0 0 0 0 0 0 0 0 0 0 0 0 0 0 0 0 0 0 0 0 0 0 0 0 0 0 0 0 0 0 0 0 0 0 0 0 0 0 0 0 0
0 0 0 0 0 0 0 0 0 0 0 0 0 0 0 0 0 0 0 0 0 0 0 0 0 0 0 0 0 0 0 0 0 0 0 0 0 0 0 0 0 0 0 0
0 0 0 0 0 0 0 0 0 0 0 0 0 0 0 0 0 0 0 0 0 0 0 0 0 0 0 0 0 0 0 0 0 0 0 0 0 0 0 0 0 0 0 0
0 0 0 0 0 0 0 0 0 0 0 0 0 0 0 0 0 0 0 0 0 0 0 0 0 0 0 0 0 0 0 0 0 0 0 0 0 0 0 0 0 0 0 0
0 0 0 0 0 0 0 0 0 0 0 0 0 0 0 0 0 0 0 0 0 0 0 0 0 0 0 0 0 0 0 0 0 0 0 0 0 0 0 0 0 0 0 0
0 0 0 0 0 0 0 0 0 0 0 0 0 0 0 0 0 0 0 0 0 0 0 0 0 0 0 0 0 0 0 0 0 0 0 0 0 0 0 0 0 0 0 0
0 0 0 0 0 0 0 0 0 0 0 0 0 0 0 0 0 0 0 0 0 0 0 0 0 0 0 0 0 0 0 0 0 0 0 0 0 0 0 0 0 0 0 0
0 0 0 0 0 0 0 0 0 0 0 0 0 0 0 0 0 0 0 0 0 0 0 0 0 0 0 0 0 0 0 0 0 0 0 0 0 0 0 0 0 0 0 0
0 0 0 0 0 0 0 0 0 0 0 0 0 0 0 0 0 0 0 0 0 0 0 0 0 0 0 0 0 0 0 0 0 0 0 0 0 0 0 0 0 0 0 0
0 0 0 0 0 0 0 0 0 0 0 0 0 0 0 0 0 0 0 0 0 0 0 0 0 0 0 0 0 0 0 0 0 0 0 0 0 0 0 0 0 0 0 0
Wind_Speed_500mb
31 20 30 32 29 9 6 22 19 5 5 9 21 25 21 25 25 26 27 29 26 25 19 25 29 31 36 41 45 50 50 54 59 64 67 65 65 59 53 54 51 45 45 43
12 30 29 26 26 17 11 13 11 8 6 5 9 25 27 31 34 38 35 34 32 26 21 19 34 38 45 47 51 51 53 52 61 66 67 68 69 67 60 59 62 56 53 53
30 11 22 22 26 29 24 22 13 3 9 5 9 24 27 21 30 36 29 25 23 24 22 25 32 34 42 50 55 59 59 55 55 58 63 67 63 66 63 67 65 66 63 59
29 12 24 28 32 28 26 15 9 10 6 10 1 10 11 14 16 18 22 20 19 15 18 19 22 26 33 40 50 49 53 58 56 55 57 70 72 68 67 65 66 65 64 60
12 18 28 31 33 27 10 19 17 10 9 6 13 10 15 7 22 26 23 19 17 14 14 12 11 11 13 18 27 37 42 46 54 60 59 60 67 67 58 59 62 58 59 60
5 3 13 6 10 20 28 18 15 9 7 12 25 18 17 16 9 9 19 18 16 16 16 15 13 11 8 7 10 16 23 32 40 47 47 53 56 57 56 59 62 59 57 53
9 12 7 15 17 15 18 28 9 10 11 12 6 12 28 4 5 5 18 19 18 18 16 16 15 11 10 9 7 8 13 20 24 28 29 34 50 46 49 53 56 58 58 58
26 19 26 21 16 19 32 32 10 13 10 6 4 16 12 1 6 8 10 17 20 19 20 19 18 17 15 14 12 10 8 6 11 20 31 39 40 47 49 49 49 51 54 55
29 25 13 16 6 31 24 19 2 11 3 1 12 13 14 16 10 20 21 22 23 22 20 22 22 22 20 19 18 17 14 12 8 4 6 17 28 36 43 48 52 52 53 51
12 13 8 6 5 8 16 23 8 10 10 10 15 19 20 16 26 23 25 31 28 24 26 29 28 27 25 22 21 19 17 14 10 7 2 3 8 15 23 30 37 42 46 48
13 7 8 12 27 32 11 13 14 9 13 10 9 17 4 16 32 35 36 36 33 31 30 29 30 28 25 21 18 15 13 10 6 4 2 3 6 10 14 18 23 29 32 36
22 6 11 21 6 11 31 35 35 15 14 12 11 26 7 1 20 38 40 40 38 35 32 29 28 25 22 19 15 12 8 4 1 3 4 4 3 4 6 8 10 13 15 18
22 12 8 9 11 11 16 29 24 33 2 23 13 29 4 8 20 34 41 39 36 35 34 32 28 24 22 18 14 10 7 6 4 3 2 2 3 5 5 5 5 7 8 12
49 10 36 39 26 24 19 31 31 28 20 41 29 53 10 18 25 33 40 42 40 38 38 36 33 30 25 20 16 14 12 9 7 5 3 1 3 5 7 8 9 11 13 16
23 18 25 36 22 5 19 29 37 39 54 32 57 45 38 27 32 54 52 41 41 43 43 39 36 32 28 24 21 19 17 15 13 11 9 6 4 4 5 7 9 13 15 17
14 6 16 6 21 12 7 26 44 52 52 46 55 44 28 32 48 48 57 56 53 49 46 44 42 38 33 30 29 26 22 19 16 12 8 7 5 5 6 8 10 12 15 18
18 12 7 16 12 9 13 58 34 42 51 42 47 71 18 21 37 48 55 66 66 56 52 51 48 44 42 39 34 29 24 20 15 10 7 5 5 7 10 14 17 20 23 25
11 11 4 7 10 18 31 14 50 50 44 47 52 45 26 38 56 69 78 72 65 63 62 58 54 51 46 41 35 28 22 17 11 6 2 5 9 13 17 21 25 28 31 34
19 17 6 12 19 21 44 11 18 23 57 56 55 43 43 24 37 52 52 62 73 71 69 64 56 53 48 42 35 30 22 14 6 2 8 14 19 22 26 29 32 35 38 40
7 18 21 10 15 24 9 18 39 15 44 31 55 52 29 38 25 21 68 80 73 74 68 67 62 53 46 41 35 27 18 11 7 11 15 19 23 27 30 33 36 38 42 44
20 13 32 24 14 15 10 20 38 22 7 6 21 56 47 26 46 37 56 67 78 78 78 68 59 52 45 39 32 24 16 11 11 15 19 23 27 30 33 37 42 45 48 51
28 22 14 13 20 35 25 19 29 2 1 4 7 24 54 54 25 32 53 72 75 76 71 69 62 54 46 37 27 19 14 12 14 18 21 25 29 34 37 40 42 44 48 51
9 6 12 17 11 3 47 8 20 1 1 5 2 14 45 40 37 46 60 67 73 77 71 64 58 53 42 30 23 16 12 14 17 21 25 28 31 33 36 39 43 46 50 54
8 5 4 2 4 2 19 18 21 12 7 5 7 18 30 40 45 53 60 72 80 77 74 69 61 50 39 29 20 14 16 17 19 23 24 25 28 30 35 39 43 46 49 54
4 15 9 9 7 7 19 36 37 25 27 16 15 19 30 41 51 56 67 73 73 71 68 62 55 46 35 24 16 17 17 18 19 20 22 24 28 32 35 38 42 45 47 53
12 9 11 9 12 8 6 11 36 45 33 27 28 25 31 38 52 62 71 75 73 70 64 55 44 33 24 19 17 17 16 15 17 17 19 22 26 31 37 42 43 45 49 50
Wind_Direction_500mb
187 201 206 197 209 269 254 218 206 141 99 230 233 251 247 233 237 247 246 245 234 223 211 217 226 229 231 230 228 230 228 243 232 232 234 236 238 236 232 233 244 242 245 250
176 216 207 212 194 196 184 211 202 114 148 222 232 266 264 245 236 241 243 238 240 236 230 241 240 236 240 239 238 233 229 228 244 234 238 241 242 245 242 240 246 248 247 248
202 199 188 175 193 198 207 217 207 309 159 209 284 266 244 236 237 241 245 246 246 249 238 238 253 251 247 244 242 238 232 226 232 245 235 234 241 244 249 244 241 247 251 250
230 116 177 192 208 204 207 203 180 151 205 257 286 273 201 200 226 216 217 209 200 205 223 231 239 243 246 242 240 242 238 227 223 234 239 233 234 235 243 246 246 246 250 258
164 164 178 204 203 200 191 165 168 160 240 318 211 264 260 99 247 221 193 178 176 175 182 193 201 217 235 237 238 239 241 236 229 226 238 234 235 239 239 249 250 250 256 258
125 42 199 207 76 197 135 117 106 133 205 252 242 218 248 202 228 131 160 179 171 168 174 168 155 150 141 163 195 211 220 223 225 227 223 232 233 236 239 244 252 256 258 259
150 176 151 154 115 139 179 163 166 205 198 245 59 203 257 182 131 200 179 171 167 167 162 160 152 144 136 128 136 171 196 210 217 220 215 235 230 235 241 247 253 258 260 262
193 202 184 176 205 170 196 194 189 194 196 196 118 227 249 204 110 159 156 161 164 162 165 161 156 149 135 127 120 115 123 164 207 210 210 218 225 228 235 240 250 256 261 263
197 207 123 175 141 150 183 214 316 102 44 202 205 252 253 173 170 181 171 162 167 165 163 162 156 146 134 130 125 117 107 101 103 124 216 235 234 235 239 244 248 252 255 260
194 174 199 143 156 233 214 154 161 218 197 231 243 244 247 202 207 190 181 178 173 170 171 164 155 145 139 133 126 120 118 108 101 92 68 279 257 246 245 247 250 254 257 260
184 193 134 167 210 183 170 187 217 224 225 225 256 246 259 223 195 192 186 178 174 173 174 169 161 153 146 141 134 129 120 114 117 127 150 253 263 263 265 263 258 253 252 254
186 119 168 198 101 269 227 214 198 198 200 246 293 255 127 358 171 180 178 175 173 172 173 173 166 161 159 156 151 149 147 134 92 335 330 326 320 313 303 294 292 285 278 273
162 185 134 192 233 199 222 223 238 236 29 216 207 256 111 167 169 177 172 173 174 175 176 176 175 176 178 174 171 174 187 204 223 250 296 324 360 11 15 1 348 321 307 297
163 167 210 217 227 159 205 208 210 224 224 236 228 252 157 170 175 179 182 187 182 183 184 184 188 189 187 180 181 183 186 176 181 183 186 225 341 319 312 313 314 311 309 307
182 210 219 245 260 175 202 196 204 209 226 219 241 245 240 195 189 195 193 182 187 190 193 191 190 189 185 184 184 181 170 158 148 136 121 105 80 39 1 332 318 313 311 308
208 241 207 242 230 230 235 222 209 214 227 232 247 255 241 255 195 191 192 191 194 197 194 191 190 188 184 181 177 168 159 152 137 129 121 101 73 39 9 355 347 340 335 333
171 142 121 239 144 96 288 231 221 223 225 223 234 242 218 217 196 195 194 201 200 195 192 193 190 186 184 179 175 170 162 152 147 135 115 78 33 3 350 345 340 334 329 326
139 131 116 126 105 216 251 242 226 229 234 230 245 251 234 212 203 205 208 201 195 193 195 194 188 185 183 180 176 171 164 158 149 129 70 335 318 314 314 313 313 314 313 313
209 166 172 204 207 296 275 170 188 197 241 232 240 244 240 198 203 222 205 208 205 198 198 193 188 186 182 179 175 172 170 166 166 254 296 298 302 306 309 311 311 310 310 311
223 215 191 166 222 230 14 185 182 169 261 200 228 237 208 153 208 213 202 211 201 202 196 190 187 183 180 176 174 173 175 185 227 275 292 303 309 312 313 314 314 315 316 315
182 187 202 201 224 269 131 149 146 172 253 296 243 231 186 196 222 236 203 193 202 196 191 185 180 181 176 176 176 180 190 226 272 292 303 308 312 315 316 317 317 318 317 317
189 175 189 198 214 250 140 147 175 178 338 334 305 223 193 207 222 204 182 183 188 187 180 181 179 177 176 177 180 191 220 255 281 299 309 313 315 316 316 318 320 323 322 321
205 204 173 205 221 48 181 77 196 84 343 309 271 208 194 191 179 180 178 185 183 180 178 177 180 177 175 180 193 209 245 276 295 304 307 310 313 316 320 321 322 323 324 324
218 173 195 132 138 192 207 227 206 231 232 267 231 207 205 195 184 180 181 182 180 179 178 178 177 177 181 188 198 229 258 275 287 293 302 309 314 317 317 320 322 324 324 321
109 149 180 259 184 261 243 228 225 232 237 253 240 214 206 202 190 188 183 180 176 174 174 175 176 180 185 192 212 242 263 277 286 298 305 310 313 317 320 323 325 324 324 321
195 174 199 233 168 216 106 246 240 238 242 243 238 213 213 217 198 191 184 180 177 174 174 175 178 184 192 210 231 246 260 274 286 295 304 313 316 320 322 321 319 320 319 317
Wind_Speed_850mb
31 20 30 32 29 9 6 22 19 5 5 9 21 25 21 25 25 26 27 29 26 25 19 25 29 31 36 41 45 50 50 54 59 64 67 65 65 59 53 54 51 45 45 43
12 30 29 26 26 17 11 13 11 8 6 5 9 25 27 31 34 38 35 34 32 26 21 19 34 38 45 47 51 51 53 52 61 66 67 68 69 67 60 59 62 56 53 53
30 11 22 22 26 29 24 22 13 3 9 5 9 24 27 21 30 36 29 25 23 24 22 25 32 34 42 50 55 59 59 55 55 58 63 67 63 66 63 67 65 66 63 59
29 12 24 28 32 28 26 15 9 10 6 10 1 10 11 14 16 18 22 20 19 15 18 19 22 26 33 40 50 49 53 58 56 55 57 70 72 68 67 65 66 65 64 60
12 18 28 31 33 27 10 19 17 10 9 6 13 10 15 7 22 26 23 19 17 14 14 12 11 11 13 18 27 37 42 46 54 60 59 60 67 67 58 59 62 58 59 60
5 3 13 6 10 20 28 18 15 9 7 12 25 18 17 16 9 9 19 18 16 16 16 15 13 11 8 7 10 16 23 32 40 47 47 53 56 57 56 59 62 59 57 53
9 12 7 15 17 15 18 28 9 10 11 12 6 12 28 4 5 5 18 19 18 18 16 16 15 11 10 9 7 8 13 20 24 28 29 34 50 46 49 53 56 58 58 58
26 19 26 21 16 19 32 32 10 13 10 6 4 16 12 1 6 8 10 17 20 19 20 19 18 17 15 14 12 10 8 6 11 20 31 39 40 47 49 49 49 51 54 55
29 25 13 16 6 31 24 19 2 11 3 1 12 13 14 16 10 20 21 22 23 22 20 22 22 22 20 19 18 17 14 12 8 4 6 17 28 36 43 48 52 52 53 51
12 13 8 6 5 8 16 23 8 10 10 10 15 19 20 16 26 23 25 31 28 24 26 29 28 27 25 22 21 19 17 14 10 7 2 3 8 15 23 30 37 42 46 48
13 7 8 12 27 32 11 13 14 9 13 10 9 17 4 16 32 35 36 36 33 31 30 29 30 28 25 21 18 15 13 10 6 4 2 3 6 10 14 18 23 29 32 36
22 6 11 21 6 11 31 35 35 15 14 12 11 26 7 1 20 38 40 40 38 35 32 29 28 25 22 19 15 12 8 4 1 3 4 4 3 4 6 8 10 13 15 18
22 12 8 9 11 11 16 29 24 33 2 23 13 29 4 8 20 34 41 39 36 35 34 32 28 24 22 18 14 10 7 6 4 3 2 2 3 5 5 5 5 7 8 12
49 10 36 39 26 24 19 31 31 28 20 41 29 53 10 18 25 33 40 42 40 38 38 36 33 30 25 20 16 14 12 9 7 5 3 1 3 5 7 8 9 11 13 16
23 18 25 36 22 5 19 29 37 39 54 32 57 45 38 27 32 54 52 41 41 43 43 39 36 32 28 24 21 19 17 15 13 11 9 6 4 4 5 7 9 13 15 17
14 6 16 6 21 12 7 26 44 52 52 46 55 44 28 32 48 48 57 56 53 49 46 44 42 38 33 30 29 26 22 19 16 12 8 7 5 5 6 8 10 12 15 18
18 12 7 16 12 9 13 58 34 42 51 42 47 71 18 21 37 48 55 66 66 56 52 51 48 44 42 39 34 29 24 20 15 10 7 5 5 7 10 14 17 20 23 25
11 11 4 7 10 18 31 14 50 50 44 47 52 45 26 38 56 69 78 72 65 63 62 58 54 51 46 41 35 28 22 17 11 6 2 5 9 13 17 21 25 28 31 34
19 17 6 12 19 21 44 11 18 23 57 56 55 43 43 24 37 52 52 62 73 71 69 64 56 53 48 42 35 30 22 14 6 2 8 14 19 22 26 29 32 35 38 40
7 18 21 10 15 24 9 18 39 15 44 31 55 52 29 38 25 21 68 80 73 74 68 67 62 53 46 41 35 27 18 11 7 11 15 19 23 27 30 33 36 38 42 44
20 13 32 24 14 15 10 20 38 22 7 6 21 56 47 26 46 37 56 67 78 78 78 68 59 52 45 39 32 24 16 11 11 15 19 23 27 30 33 37 42 45 48 51
28 22 14 13 20 35 25 19 29 2 1 4 7 24 54 54 25 32 53 72 75 76 71 69 62 54 46 37 27 19 14 12 14 18 21 25 29 34 37 40 42 44 48 51
9 6 12 17 11 3 47 8 20 1 1 5 2 14 45 40 37 46 60 67 73 77 71 64 58 53 42 30 23 16 12 14 17 21 25 28 31 33 36 39 43 46 50 54
8 5 4 2 4 2 19 18 21 12 7 5 7 18 30 40 45 53 60 72 80 77 74 69 61 50 39 29 20 14 16 17 19 23 24 25 28 30 35 39 43 46 49 54
4 15 9 9 7 7 19 36 37 25 27 16 15 19 30 41 51 56 67 73 73 71 68 62 55 46 35 24 16 17 17 18 19 20 22 24 28 32 35 38 42 45 47 53
12 9 11 9 12 8 6 11 36 45 33 27 28 25 31 38 52 62 71 75 73 70 64 55 44 33 24 19 17 17 16 15 17 17 19 22 26 31 37 42 43 45 49 50
Wind_Direction_850mb
187 201 206 197 209 269 254 218 206 141 99 230 233 251 247 233 237 247 246 245 234 223 211 217 226 229 231 230 228 230 228 243 232 232 234 236 238 236 232 233 244 242 245 250
176 216 207 212 194 196 184 211 202 114 148 222 232 266 264 245 236 241 243 238 240 236 230 241 240 236 240 239 238 233 229 228 244 234 238 241 242 245 242 240 246 248 247 248
202 199 188 175 193 198 207 217 207 309 159 209 284 266 244 236 237 241 245 246 246 249 238 238 253 251 247 244 242 238 232 226 232 245 235 234 241 244 249 244 241 247 251 250
230 116 177 192 208 204 207 203 180 151 205 257 286 273 201 200 226 216 217 209 200 205 223 231 239 243 246 242 240 242 238 227 223 234 239 233 234 235 243 246 246 246 250 258
164 164 178 204 203 200 191 165 168 160 240 318 211 264 260 99 247 221 193 178 176 175 182 193 201 217 235 237 238 239 241 236 229 226 238 234 235 239 239 249 250 250 256 258
125 42 199 207 76 197 135 117 106 133 205 252 242 218 248 202 228 131 160 179 171 168 174 168 155 150 141 163 195 211 220 223 225 227 223 232 233 236 239 244 252 256 258 259
150 176 151 154 115 139 179 163 166 205 198 245 59 203 257 182 131 200 179 171 167 167 162 160 152 144 136 128 136 171 196 210 217 220 215 235 230 235 241 247 253 258 260 262
193 202 184 176 205 170 196 194 189 194 196 196 118 227 249 204 110 159 156 161 164 162 165 161 156 149 135 127 120 115 123 164 207 210 210 218 225 228 235 240 250 256 261 263
197 207 123 175 141 150 183 214 316 102 44 202 205 252 253 173 170 181 171 162 167 165 163 162 156 146 134 130 125 117 107 101 103 124 216 235 234 235 239 244 248 252 255 260
194 174 199 143 156 233 214 154 161 218 197 231 243 244 247 202 207 190 181 178 173 170 171 164 155 145 139 133 126 120 118 108 101 92 68 279 257 246 245 247 250 254 257 260
184 193 134 167 210 183 170 187 217 224 225 225 256 246 259 223 195 192 186 178 174 173 174 169 161 153 146 141 134 129 120 114 117 127 150 253 263 263 265 263 258 253 252 254
186 119 168 198 101 269 227 214 198 198 200 246 293 255 127 358 171 180 178 175 173 172 173 173 166 161 159 156 151 149 147 134 92 335 330 326 320 313 303 294 292 285 278 273
162 185 134 192 233 199 222 223 238 236 29 216 207 256 111 167 169 177 172 173 174 175 176 176 175 176 178 174 171 174 187 204 223 250 296 324 360 11 15 1 348 321 307 297
163 167 210 217 227 159 205 208 210 224 224 236 228 252 157 170 175 179 182 187 182 183 184 184 188 189 187 180 181 183 186 176 181 183 186 225 341 319 312 313 314 311 309 307
182 210 219 245 260 175 202 196 204 209 226 219 241 245 240 195 189 195 193 182 187 190 193 191 190 189 185 184 184 181 170 158 148 136 121 105 80 39 1 332 318 313 311 308
208 241 207 242 230 230 235 222 209 214 227 232 247 255 241 255 195 191 192 191 194 197 194 191 190 188 184 181 177 168 159 152 137 129 121 101 73 39 9 355 347 340 335 333
171 142 121 239 144 96 288 231 221 223 225 223 234 242 218 217 196 195 194 201 200 195 192 193 190 186 184 179 175 170 162 152 147 135 115 78 33 3 350 345 340 334 329 326
139 131 116 126 105 216 251 242 226 229 234 230 245 251 234 212 203 205 208 201 195 193 195 194 188 185 183 180 176 171 164 158 149 129 70 335 318 314 314 313 313 314 313 313
209 166 172 204 207 296 275 170 188 197 241 232 240 244 240 198 203 222 205 208 205 198 198 193 188 186 182 179 175 172 170 166 166 254 296 298 302 306 309 311 311 310 310 311
223 215 191 166 222 230 14 185 182 169 261 200 228 237 208 153 208 213 202 211 201 202 196 190 187 183 180 176 174 173 175 185 227 275 292 303 309 312 313 314 314 315 316 315
182 187 202 201 224 269 131 149 146 172 253 296 243 231 186 196 222 236 203 193 202 196 191 185 180 181 176 176 176 180 190 226 272 292 303 308 312 315 316 317 317 318 317 317
189 175 189 198 214 250 140 147 175 178 338 334 305 223 193 207 222 204 182 183 188 187 180 181 179 177 176 177 180 191 220 255 281 299 309 313 315 316 316 318 320 323 322 321
205 204 173 205 221 48 181 77 196 84 343 309 271 208 194 191 179 180 178 185 183 180 178 177 180 177 175 180 193 209 245 276 295 304 307 310 313 316 320 321 322 323 324 324
218 173 195 132 138 192 207 227 206 231 232 267 231 207 205 195 184 180 181 182 180 179 178 178 177 177 181 188 198 229 258 275 287 293 302 309 314 317 317 320 322 324 324 321
109 149 180 259 184 261 243 228 225 232 237 253 240 214 206 202 190 188 183 180 176 174 174 175 176 180 185 192 212 242 263 277 286 298 305 310 313 317 320 323 325 324 324 321
195 174 199 233 168 216 106 246 240 238 242 243 238 213 213 217 198 191 184 180 177 174 174 175 178 184 192 210 231 246 260 274 286 295 304 313 316 320 322 321 319 320 319 317